Temperature
16 16 16 16 16 16 16 16 16 16 15 15 15 15 14 14 14 14 14 14 14 14 14 14 14 14 14 14 13 13 13 13 13 12 13 13 13 13 13 13 13 12 12
16 16 16 16 16 16 16 16 16 16 16 15 15 15 15 15 14 14 14 14 14 14 14 14 14 14 14 14 13 13 13 13 13 12 11 11 12 12 12 12 12 12 12
16 16 16 16 16 16 16 16 16 16 16 15 15 15 14 14 14 14 14 14 14 14 14 14 14 14 14 14 13 13 13 13 12 12 11 10 10 11 11 11 11 11 11
16 16 16 16 16 16 16 16 16 16 16 15 15 15 15 14 14 14 14 14 14 14 14 14 14 14 14 14 13 13 13 12 12 12 11 10 10 9 10 10 10 10 10
16 16 16 17 17 16 16 16 16 16 16 15 15 15 15 15 15 14 14 14 14 14 14 14 14 14 13 13 13 13 12 12 12 11 11 10 10 9 9 9 9 9 9
16 16 16 16 16 16 16 16 16 16 16 15 15 15 15 15 14 14 14 14 14 14 14 13 13 13 13 13 13 12 12 11 11 11 10 9 9 9 8 8 8 8 8
15 16 16 16 16 16 16 16 16 15 15 15 15 15 14 14 14 14 14 14 14 14 14 13 13 13 13 12 12 12 11 11 10 10 9 9 8 8 8 7 7 7 7
15 15 15 16 16 16 16 15 15 15 15 15 14 14 14 14 14 14 14 14 13 13 13 13 13 12 12 12 11 11 11 10 10 9 9 8 8 8 7 7 7 7 7
14 15 15 15 15 15 15 15 15 15 14 14 14 14 14 14 14 13 13 13 13 13 12 12 12 12 11 11 11 10 10 9 9 8 8 7 7 7 6 6 6 6 6
14 14 14 14 14 14 14 14 14 14 14 13 13 13 13 13 13 13 13 13 12 12 12 12 11 11 10 10 10 9 9 8 8 7 7 7 6 6 6 6 6 5 5
13 13 13 13 13 13 13 13 13 13 13 12 12 12 12 12 12 12 12 12 12 11 11 11 10 10 9 9 9 8 7 7 6 6 6 6 5 5 5 5 5 5 5
12 12 12 12 12 12 12 12 12 12 12 11 11 11 11 11 11 11 11 11 11 10 10 10 9 9 8 8 7 7 6 6 5 5 5 5 5 5 5 5 5 5 4
11 11 11 11 11 11 11 11 11 11 10 10 10 9 10 10 10 10 10 10 10 9 9 9 8 8 7 7 6 5 5 5 4 4 4 4 4 4 4 4 4 4 4
10 10 10 10 10 11 10 10 10 10 9 9 9 9 9 9 9 9 9 9 9 8 8 8 7 7 6 5 5 4 4 3 3 3 3 3 3 3 3 3 3 3 3
9 9 9 9 10 10 10 10 9 9 8 8 8 8 8 8 9 9 8 8 8 7 7 6 6 5 4 4 3 3 3 2 2 2 2 2 2 2 2 3 3 3 3
8 8 8 9 9 9 9 9 9 8 8 8 8 8 8 8 8 8 7 7 7 6 6 5 4 4 3 3 2 2 2 2 2 2 2 2 2 2 2 2 2 2 2
7 7 7 8 8 8 9 9 9 8 8 8 8 7 7 8 7 7 7 6 6 5 5 4 3 3 2 2 2 1 1 1 1 1 1 1 1 1 1 1 1 1 1
6 7 7 7 8 8 8 8 8 8 8 7 7 7 7 7 7 6 6 5 5 4 4 3 2 2 1 1 1 1 1 1 1 1 1 1 1 1 1 1 1 1 1
5 6 6 7 7 7 8 8 8 8 7 7 7 7 7 6 6 6 5 5 4 3 3 2 1 1 1 1 0 0 0 0 0 0 0 0 0 0 0 1 1 0 0
5 5 6 6 7 7 7 7 7 7 7 7 7 7 6 6 5 5 4 4 3 2 2 1 1 1 0 -0 -0 -0 0 0 0 0 0 0 0 0 0 0 0 0 -0
4 5 5 5 6 6 6 6 6 6 6 6 6 6 5 5 4 4 3 3 2 1 1 1 0 0 -0 -0 -0 -0 0 0 0 0 0 0 0 0 -0 -0 -0 -0 -0
3 4 4 4 5 5 5 5 6 6 5 5 5 5 5 4 4 3 3 2 1 1 0 -0 -0 -0 -0 -0 -0 -0 0 0 0 0 0 -0 -0 -0 -0 -0 -0 -0 -0
2 2 2 3 4 4 4 4 5 5 5 5 4 4 4 3 3 2 2 1 1 1 0 -0 -0 -0 -0 -0 -0 -0 0 0 0 0 -0 -0 -0 -0 -0 -0 -1 -1 -1
1 1 1 2 3 3 3 3 3 4 4 4 4 3 3 3 2 2 2 1 1 1 0 0 -0 -0 -0 -0 0 0 0 0 0 0 -0 -0 -0 -0 -0 -1 -1 -1 -1
-0 0 0 1 1 2 2 2 3 3 3 3 3 3 3 3 2 2 2 1 1 1 1 1 0 -0 0 0 0 0 0 0 -0 -0 -0 -0 -0 -0 -0 -1 -1 -1 -1
-1 -1 -1 -0 0 1 1 1 2 2 2 2 2 2 2 2 2 1 1 1 1 0 0 0 0 -0 -0 -0 -0 0 -0 -0 -1 -1 -0 -0 -1 -1 -1 -1 -1 -1 -2
Wind_Speed
9 7 8 8 8 9 10 11 11 11 9 6 6 6 5 5 4 5 8 9 9 9 8 4 3 3 2 2 2 1 2 2 1 2 4 5 5 5 5 3 3 3 4
8 8 8 8 9 10 10 11 11 11 10 8 6 4 4 4 4 4 6 8 8 8 7 5 3 2 2 1 1 1 1 1 0 1 2 4 5 4 3 3 1 1 1
11 10 10 10 9 9 10 10 11 10 10 9 5 4 4 3 3 3 3 4 7 7 7 6 4 3 3 2 1 1 2 2 1 2 3 2 3 3 4 3 3 3 2
11 10 11 10 10 10 9 9 9 9 9 10 9 9 7 6 6 5 4 4 6 6 7 6 5 3 2 2 2 2 2 2 2 2 2 4 3 3 4 3 3 3 3
11 11 12 12 10 9 8 7 8 7 7 8 9 9 7 5 4 4 6 5 4 5 6 6 4 3 2 2 1 1 1 1 2 3 2 3 3 4 4 4 3 2 3
9 9 9 8 7 5 5 6 7 6 6 7 8 9 9 8 8 7 7 5 4 3 4 5 4 3 3 2 1 1 1 1 2 2 2 3 3 3 4 4 3 2 1
6 7 7 7 7 7 7 7 7 6 5 7 7 8 9 10 10 9 8 7 4 3 3 3 3 3 3 2 2 1 1 1 2 2 2 2 3 2 2 3 3 3 1
4 5 6 7 7 7 7 7 7 6 6 6 6 6 8 7 6 7 7 6 5 4 4 4 3 3 3 2 1 0 1 1 1 2 2 2 2 1 2 2 2 2 2
4 4 4 5 7 7 7 6 6 5 5 5 5 5 6 7 7 7 6 5 5 4 5 5 4 3 3 2 1 1 0 0 1 1 1 1 0 0 1 1 2 3 3
3 3 2 3 4 5 4 5 5 5 4 5 5 5 5 6 7 7 7 7 6 5 6 5 4 4 3 2 1 0 0 1 0 0 1 1 1 1 1 1 1 1 2
3 2 1 1 2 3 4 4 5 5 6 6 6 7 6 6 7 6 6 7 6 6 6 5 5 4 2 2 2 1 1 2 1 2 2 2 2 2 2 1 1 1 0
3 2 1 1 1 3 4 5 5 6 6 6 7 7 7 7 6 6 6 6 6 6 5 5 4 4 3 2 2 2 2 2 2 2 2 2 2 3 2 2 2 2 1
4 3 2 1 2 3 4 4 5 6 6 7 8 7 7 7 7 6 6 6 6 6 5 5 4 4 3 2 2 3 3 3 3 3 3 2 3 3 2 3 2 2 2
4 4 3 3 3 3 4 4 5 6 7 8 8 8 7 7 6 6 6 6 6 6 5 4 4 4 3 3 3 3 4 4 4 4 4 4 3 3 2 2 2 1 2
5 4 4 4 4 3 4 5 5 6 7 8 8 8 7 7 7 7 6 6 6 6 6 5 4 3 3 3 3 4 5 5 5 4 4 4 4 4 3 2 1 1 2
6 6 5 5 5 5 5 5 6 7 7 9 8 8 8 7 7 7 7 6 5 5 5 5 5 4 3 4 6 5 4 5 5 4 3 3 3 4 5 5 4 3 2
6 7 7 6 6 6 6 7 7 7 8 9 8 8 9 8 8 7 7 6 6 5 5 5 5 4 4 6 6 7 5 5 5 5 3 2 2 4 3 4 6 6 5
8 8 7 8 7 6 6 6 5 8 9 9 9 9 9 9 8 7 7 6 5 5 4 5 5 5 5 7 7 8 5 4 4 4 4 3 2 2 3 3 3 3 3
7 7 7 8 8 7 5 4 5 7 9 9 10 10 10 10 9 8 8 6 5 5 4 4 6 5 5 8 8 8 4 3 3 3 3 4 3 4 5 4 2 1 1
7 7 8 7 7 7 4 3 5 7 9 10 9 9 10 10 10 9 7 5 5 5 5 5 5 6 5 8 9 9 4 4 3 2 3 6 6 5 5 5 4 3 2
8 8 7 7 7 6 3 3 4 7 7 6 7 8 9 9 9 8 6 6 6 6 5 5 5 5 7 9 11 11 5 5 4 4 3 4 7 7 6 6 5 5 4
9 8 7 8 7 5 3 4 5 5 4 6 7 8 8 8 7 8 7 7 7 7 6 6 5 5 6 8 10 13 11 9 5 5 4 5 9 8 7 5 6 6 4
9 8 7 8 7 6 4 5 5 3 4 6 7 7 8 8 8 9 9 8 8 7 7 6 6 6 5 7 14 14 14 14 7 6 8 9 10 9 6 7 7 5 3
9 8 8 8 8 7 6 5 5 4 5 7 7 7 8 8 8 8 8 8 8 8 7 8 7 6 6 6 6 6 7 11 9 6 8 10 10 8 7 6 5 3 4
9 9 8 9 9 8 7 6 4 4 5 6 7 8 8 8 8 8 8 9 9 9 9 8 7 7 8 10 14 9 7 6 6 5 3 3 3 4 4 4 4 4 4
9 9 9 9 10 9 8 7 5 4 6 6 7 7 7 7 7 7 7 11 11 14 16 14 11 9 11 11 14 16 16 15 14 8 5 6 6 7 6 6 6 5 6
Wind_Direction
234 220 207 196 186 184 181 183 180 181 175 173 174 174 180 175 169 169 176 177 174 172 167 164 165 162 171 196 214 225 255 264 266 305 304 296 283 279 277 275 273 278 273
239 222 206 198 192 189 188 188 187 182 182 184 178 172 164 163 165 155 158 168 165 164 163 155 152 145 161 173 189 180 229 268 202 203 296 315 326 321 322 331 324 320 8
225 215 203 202 197 195 193 193 190 184 182 175 157 133 113 105 133 159 158 154 151 147 142 146 144 139 149 169 193 186 193 236 263 204 211 244 269 308 313 346 18 23 41
223 212 202 200 201 203 196 191 188 184 180 172 171 169 173 182 185 174 164 147 141 139 139 137 139 138 141 155 184 177 186 195 234 255 233 225 218 248 297 316 350 27 42
219 211 204 202 203 196 189 186 178 179 179 179 180 179 182 177 152 144 148 146 135 136 134 133 132 129 129 136 143 163 178 201 219 225 238 248 241 227 237 273 299 358 36
214 211 206 194 191 177 170 169 168 174 175 177 181 184 179 166 157 161 164 159 147 136 130 129 126 123 123 128 137 162 172 208 235 237 228 226 233 230 224 244 252 254 78
203 199 192 185 180 175 175 172 168 172 172 172 177 182 178 173 173 171 170 161 155 150 147 131 130 129 131 130 126 155 216 238 246 250 250 249 247 243 235 241 247 240 186
171 175 183 185 185 184 178 175 174 173 172 174 175 172 166 166 168 163 159 158 156 151 148 135 130 125 122 112 100 142 247 227 251 266 263 255 260 253 241 238 228 243 228
148 154 162 175 183 187 190 187 179 173 172 169 159 156 155 153 151 146 139 140 140 140 140 135 133 127 122 117 114 153 262 263 253 261 288 262 276 328 286 264 233 225 231
108 117 158 189 194 191 186 178 178 178 169 161 158 148 142 140 140 139 139 138 135 133 136 133 133 131 126 117 115 164 203 171 175 77 81 67 47 39 13 327 296 257 231
103 98 88 154 167 169 177 181 181 171 166 159 146 136 134 129 126 128 133 133 131 136 139 142 138 137 133 120 128 156 163 155 123 93 102 80 60 60 25 11 17 9 251
65 67 74 90 154 186 192 189 184 176 168 153 141 137 133 128 128 133 136 134 135 136 137 137 137 138 132 130 143 148 144 150 141 120 108 91 83 70 44 38 41 32 18
40 33 31 351 240 224 211 199 188 178 162 149 143 141 142 142 143 143 141 138 137 135 132 135 140 140 141 140 139 139 130 124 117 109 106 96 99 83 62 56 47 23 22
30 15 348 310 278 246 224 208 198 179 164 155 153 156 160 157 151 147 144 144 144 143 141 139 142 145 145 144 145 139 128 115 102 94 93 89 98 105 92 66 44 39 63
13 354 331 310 293 272 245 219 203 185 169 163 166 169 161 152 146 146 146 145 148 150 148 143 144 145 148 156 156 151 143 132 117 99 88 88 100 111 109 101 74 80 95
348 337 327 319 302 274 254 231 211 194 176 175 177 166 158 155 155 153 151 150 150 150 152 155 155 158 165 169 172 159 148 145 139 129 105 89 73 83 85 88 87 98 123
335 332 320 303 292 278 253 235 219 193 183 183 177 169 164 163 164 160 159 162 163 162 163 164 162 166 178 181 178 170 147 146 149 150 150 142 118 91 70 69 60 50 61
332 323 316 308 298 285 269 242 211 191 188 185 180 175 170 169 165 165 171 170 165 169 169 172 170 169 188 187 179 163 137 137 148 160 165 161 156 164 144 114 80 47 30
314 306 301 296 295 292 279 244 211 193 190 192 188 181 175 172 171 177 178 172 166 170 172 172 172 175 190 188 179 157 138 147 167 180 183 178 192 202 165 140 133 90 354
321 316 315 308 304 300 286 235 218 202 205 201 191 179 174 175 180 180 173 166 166 175 173 178 183 184 193 196 188 173 157 169 187 205 214 209 206 212 185 160 166 188 220
316 318 319 317 309 306 291 252 234 224 218 193 177 175 177 178 176 170 165 164 166 170 179 186 194 197 205 207 204 195 178 185 191 203 214 230 222 217 212 191 187 211 199
321 323 322 318 316 313 295 271 257 244 198 178 178 179 176 174 170 168 171 172 175 183 191 196 205 214 214 217 218 214 209 200 193 204 208 220 226 224 225 213 209 222 195
317 319 317 315 315 313 295 277 275 239 192 183 185 181 175 174 171 176 180 182 188 196 199 201 212 218 215 222 224 224 220 214 203 208 213 218 226 226 230 230 230 225 186
315 315 313 311 311 312 303 280 272 233 199 195 190 181 179 180 180 184 187 193 197 202 204 206 215 218 215 217 220 220 225 223 217 210 220 223 227 222 220 234 240 211 198
315 314 309 305 304 308 304 289 271 230 213 205 196 189 189 187 192 197 202 203 207 206 206 209 209 208 219 223 213 205 210 205 204 180 185 198 208 216 216 222 228 221 221
312 313 311 307 305 304 300 291 269 234 218 215 206 200 195 195 197 200 211 218 216 222 223 220 215 220 226 227 220 218 218 217 212 201 201 212 218 223 225 226 227 222 222
Height
1499 1502 1504 1506 1508 1511 1513 1516 1518 1521 1524 1527 1529 1532 1535 1537 1540 1542 1544 1546 1548 1549 1550 1551 1551 1552 1552 1552 1553 1552 1552 1551 1550 1549 1547 1546 1545 1544 1542 1541 1541 1540 1540
1497 1499 1501 1504 1506 1508 1510 1513 1515 1518 1521 1523 1526 1529 1532 1535 1537 1540 1541 1543 1545 1546 1547 1548 1548 1549 1549 1549 1549 1549 1548 1547 1547 1545 1543 1541 1540 1539 1539 1538 1538 1538 1537
1493 1495 1498 1500 1503 1505 1507 1510 1512 1515 1518 1520 1523 1526 1529 1531 1534 1536 1538 1540 1541 1543 1544 1544 1545 1545 1545 1545 1545 1545 1544 1543 1543 1542 1542 1540 1537 1536 1536 1535 1535 1534 1534
1489 1491 1494 1497 1499 1502 1505 1507 1510 1512 1514 1517 1519 1522 1524 1526 1529 1532 1534 1536 1538 1539 1540 1541 1542 1542 1541 1541 1541 1540 1540 1539 1538 1537 1537 1537 1535 1535 1532 1532 1532 1531 1530
1485 1487 1490 1493 1496 1499 1502 1504 1507 1509 1511 1514 1516 1519 1521 1524 1527 1529 1531 1532 1534 1536 1537 1537 1538 1538 1537 1537 1537 1536 1535 1534 1533 1533 1532 1531 1530 1530 1529 1527 1527 1527 1526
1481 1484 1487 1490 1493 1496 1499 1501 1504 1506 1508 1510 1513 1515 1518 1520 1522 1525 1527 1528 1530 1532 1532 1533 1533 1533 1533 1532 1532 1531 1530 1529 1528 1527 1526 1526 1525 1525 1524 1523 1523 1522 1522
1478 1480 1483 1486 1489 1492 1495 1498 1500 1502 1505 1507 1509 1511 1514 1516 1518 1521 1523 1525 1526 1527 1528 1529 1529 1529 1528 1528 1527 1526 1525 1524 1523 1522 1521 1520 1520 1520 1519 1519 1519 1518 1518
1475 1477 1480 1483 1487 1490 1492 1495 1497 1499 1501 1503 1505 1508 1510 1512 1514 1517 1519 1520 1522 1523 1524 1524 1524 1524 1523 1523 1522 1521 1520 1519 1517 1517 1516 1515 1514 1514 1514 1514 1515 1514 1514
1474 1476 1479 1482 1484 1487 1490 1492 1494 1496 1498 1500 1501 1504 1506 1508 1510 1512 1514 1516 1518 1519 1519 1519 1519 1519 1518 1517 1516 1516 1515 1514 1512 1511 1511 1510 1510 1509 1509 1509 1510 1511 1510
1474 1476 1478 1480 1483 1485 1487 1489 1491 1493 1494 1496 1497 1499 1502 1504 1506 1508 1510 1511 1513 1514 1514 1514 1514 1514 1513 1512 1511 1510 1509 1509 1508 1507 1506 1505 1505 1505 1505 1504 1505 1505 1506
1473 1475 1477 1479 1481 1483 1485 1486 1488 1489 1490 1492 1493 1495 1497 1500 1502 1504 1506 1507 1508 1509 1509 1509 1509 1508 1508 1507 1506 1505 1504 1504 1503 1502 1502 1501 1501 1500 1500 1500 1500 1501 1501
1474 1475 1477 1478 1480 1481 1482 1483 1484 1485 1486 1488 1489 1491 1494 1496 1498 1500 1502 1503 1504 1504 1504 1504 1503 1503 1502 1502 1501 1500 1500 1499 1499 1498 1498 1497 1497 1497 1496 1496 1496 1497 1497
1475 1476 1476 1477 1478 1479 1479 1480 1481 1481 1482 1484 1486 1488 1490 1493 1495 1496 1498 1499 1499 1500 1499 1499 1499 1498 1497 1496 1496 1495 1495 1495 1494 1494 1494 1494 1494 1493 1493 1493 1493 1493 1493
1476 1476 1476 1476 1476 1476 1476 1477 1477 1478 1479 1481 1483 1485 1487 1490 1491 1493 1494 1495 1495 1495 1495 1494 1494 1493 1492 1492 1491 1491 1490 1490 1490 1490 1490 1490 1490 1490 1490 1490 1490 1489 1490
1476 1475 1475 1474 1474 1473 1473 1473 1474 1474 1476 1477 1479 1481 1484 1486 1488 1489 1490 1491 1491 1490 1490 1490 1489 1488 1488 1487 1487 1487 1487 1487 1487 1487 1487 1487 1487 1487 1487 1487 1486 1486 1486
1475 1474 1473 1472 1471 1470 1470 1470 1470 1471 1472 1474 1476 1478 1480 1482 1484 1485 1486 1486 1486 1486 1486 1485 1484 1484 1483 1483 1483 1483 1483 1484 1484 1484 1484 1484 1484 1484 1484 1484 1483 1484 1484
1474 1473 1471 1470 1468 1467 1466 1466 1466 1467 1468 1470 1472 1474 1476 1478 1480 1481 1482 1482 1482 1482 1481 1481 1480 1480 1480 1480 1480 1480 1480 1481 1481 1481 1481 1481 1481 1481 1481 1481 1481 1481 1481
1472 1470 1469 1467 1465 1464 1463 1462 1462 1463 1464 1466 1468 1470 1472 1474 1475 1476 1477 1478 1478 1478 1477 1477 1477 1477 1477 1477 1477 1477 1478 1478 1478 1478 1479 1479 1479 1479 1479 1479 1479 1479 1479
1470 1468 1466 1464 1462 1460 1459 1458 1458 1459 1460 1461 1463 1465 1467 1469 1470 1472 1473 1473 1473 1473 1473 1473 1474 1474 1474 1474 1474 1475 1475 1475 1476 1476 1476 1476 1476 1476 1476 1477 1477 1477 1476
1467 1465 1463 1460 1458 1456 1455 1454 1454 1454 1455 1457 1459 1461 1463 1464 1466 1467 1468 1468 1469 1469 1469 1470 1470 1471 1471 1472 1472 1472 1472 1473 1473 1474 1474 1474 1474 1474 1474 1475 1475 1475 1475
1464 1462 1459 1456 1454 1452 1451 1450 1450 1450 1451 1453 1455 1456 1458 1459 1461 1462 1463 1464 1464 1465 1465 1466 1467 1467 1468 1469 1469 1469 1470 1471 1471 1471 1472 1472 1472 1472 1472 1473 1473 1473 1473
1460 1458 1455 1453 1451 1449 1448 1446 1446 1447 1447 1448 1450 1451 1452 1454 1455 1456 1458 1459 1459 1460 1461 1462 1463 1464 1465 1465 1466 1467 1467 1468 1469 1469 1470 1470 1470 1470 1470 1470 1471 1471 1471
1457 1454 1452 1449 1447 1446 1445 1443 1443 1443 1443 1444 1445 1446 1447 1448 1450 1451 1452 1453 1454 1455 1456 1458 1459 1460 1461 1462 1463 1464 1464 1465 1466 1467 1467 1467 1468 1468 1468 1468 1468 1468 1468
1454 1451 1448 1446 1443 1442 1441 1440 1439 1439 1439 1439 1440 1441 1442 1443 1445 1446 1447 1448 1450 1451 1452 1453 1454 1456 1457 1458 1459 1460 1461 1462 1463 1463 1464 1464 1465 1465 1465 1465 1465 1465 1465
1450 1447 1445 1442 1440 1438 1436 1436 1435 1434 1434 1434 1435 1436 1437 1438 1440 1441 1442 1443 1445 1447 1448 1449 1450 1451 1452 1454 1455 1456 1457 1458 1459 1460 1460 1460 1461 1461 1462 1462 1462 1462 1462
1446 1443 1440 1438 1435 1433 1432 1431 1430 1429 1429 1429 1430 1431 1432 1433 1434 1436 1437 1438 1440 1442 1443 1444 1446 1447 1449 1450 1451 1452 1453 1454 1455 1455 1455 1456 1457 1457 1457 1457 1458 1458 1457